Location: Middle Street
(51.7167°N, 0.0333°E)
Time: 20:14:36
(UTC+00:00)

Cosmos 2082 Rocket - Pass Details

Date: 20 January 2021
Orbit: 832 x 855 km, 71.0° (Epoch: 27 February)

Event Time Altitude Azimuth Distance (km) Brightness Sun altitude
Rises 19:31:09 0° 330° (NNW) 3,438 5.8 -27.8°
Reaches altitude 10° 19:33:43 10° 336° (NNW) 2,498 4.9 -28.2°
Enters shadow 19:37:23 36° 1° (N) 1,332 3.2 -28.8°
